TimeCDT,TemperatureF,Dew PointF,Humidity,Sea Level PressureIn,VisibilityMPH,Wind Direction,Wind SpeedMPH,Gust SpeedMPH,PrecipitationIn,Events,Conditions,WindDirDegrees,DateUTC
12:51 AM,42.1,39.9,92,29.91,10.0,West,8.1,-,N/A,,Overcast,260,2012-10-10 05:51:00
1:51 AM,42.1,39.9,92,29.92,10.0,West,10.4,-,N/A,,Partly Cloudy,260,2012-10-10 06:51:00
2:51 AM,41.0,39.0,93,29.93,10.0,West,11.5,-,N/A,,Partly Cloudy,260,2012-10-10 07:51:00
3:51 AM,39.9,37.9,93,29.94,10.0,West,13.8,-,N/A,,Clear,280,2012-10-10 08:51:00
4:51 AM,39.0,36.0,89,29.96,10.0,West,13.8,-,N/A,,Clear,280,2012-10-10 09:51:00
5:51 AM,37.9,34.0,86,29.97,10.0,WNW,9.2,-,N/A,,Clear,290,2012-10-10 10:51:00
6:51 AM,37.0,33.1,86,30.00,10.0,WNW,11.5,-,N/A,,Partly Cloudy,290,2012-10-10 11:51:00
7:51 AM,37.0,32.0,82,30.03,10.0,WNW,12.7,-,N/A,,Partly Cloudy,290,2012-10-10 12:51:00
8:51 AM,39.2,32.0,75,30.05,10.0,WNW,12.7,-,N/A,,Partly Cloudy,290,2012-10-10 13:51:00
9:51 AM,42.1,32.0,67,30.09,10.0,NW,15.0,-,N/A,,Partly Cloudy,310,2012-10-10 14:51:00
10:51 AM,45.0,30.9,58,30.10,10.0,WNW,13.8,19.6,N/A,,Partly Cloudy,290,2012-10-10 15:51:00
11:51 AM,48.0,28.0,46,30.12,10.0,WNW,18.4,25.3,N/A,,Scattered Clouds,290,2012-10-10 16:51:00
12:51 PM,50.0,26.1,39,30.11,10.0,WNW,19.6,26.5,N/A,,Scattered Clouds,290,2012-10-10 17:51:00
1:51 PM,50.0,25.0,38,30.11,10.0,West,17.3,-,N/A,,Scattered Clouds,280,2012-10-10 18:51:00
2:51 PM,51.1,25.0,36,30.12,10.0,West,17.3,27.6,N/A,,Scattered Clouds,280,2012-10-10 19:51:00
3:51 PM,51.1,26.1,38,30.11,10.0,WNW,19.6,26.5,N/A,,Scattered Clouds,290,2012-10-10 20:51:00
4:51 PM,51.1,26.1,38,30.12,10.0,WNW,17.3,24.2,N/A,,Scattered Clouds,300,2012-10-10 21:51:00
5:51 PM,48.9,26.1,41,30.13,10.0,West,17.3,23.0,N/A,,Partly Cloudy,280,2012-10-10 22:51:00
6:51 PM,46.9,27.0,46,30.14,10.0,WNW,11.5,-,N/A,,Clear,290,2012-10-10 23:51:00
7:51 PM,45.0,28.9,53,30.17,10.0,West,9.2,-,N/A,,Clear,270,2012-10-11 00:51:00
8:51 PM,42.1,30.9,65,30.17,10.0,West,6.9,-,N/A,,Clear,260,2012-10-11 01:51:00
9:51 PM,42.1,30.0,62,30.17,10.0,WSW,6.9,-,N/A,,Clear,250,2012-10-11 02:51:00
10:51 PM,39.9,30.9,70,30.17,10.0,WSW,6.9,-,N/A,,Clear,250,2012-10-11 03:51:00
11:51 PM,39.0,30.9,73,30.17,10.0,SW,6.9,-,N/A,,Clear,230,2012-10-11 04:51:00